[[{"header":{"parameterUnit":"m.s-1","parameterCategory":1,"la1":30.2991,"la2":30.254,"lo1":-89.0895,"lo2":-89.0444,"dy":0.0017,"dx":0.0017,"nx":28,"ny":28,"refTime":"2024-06-24T21:00:00:Z","depth":0,"parameterNumber":2,"parameterNumberName":"U-component_of_WINDS"},"data":[0,0,0,0,0,0,0,0,0,0,0,0,0,0,0,0,0,0,0,0,0,0,0,0,0,0,0,0,0,0,0,0,0,0,0,0,0,0,0,0,0,0,0,0,0,0,0,0,0,0,0,0,0,0,0,0,0,0,5.2375,5.2378,0,5.259,5.2592,5.2595,5.261,5.2608,5.2606,5.2603,5.2823,5.2831,5.2839,0,0,0,0,0,0,0,0,0,0,0,0,0,5.1979,5.1987,5.2375,5.2378,5.2381,5.259,5.2593,5.2596,5.2611,5.2608,5.2605,5.2602,5.282,5.283,5.284,0,0,0,0,0,0,0,0,0,0,0,0,0,5.2168,5.1989,5.2375,5.2413,5.2419,5.2589,5.2593,5.2596,5.2611,5.2608,5.2604,5.2601,5.2817,5.2829,5.2841,5.2987,0,0,5.2878,5.2883,0,0,0,0,0,0,0,0,5.2158,5.2183,5.2405,5.2411,5.2418,5.257,5.2534,5.2727,5.2612,5.2538,5.2603,5.2599,5.2742,5.276,5.2808,5.2997,5.3007,5.2879,5.2886,5.2892,5.2895,0,0,0,0,0,0,0,5.2144,5.2174,5.246,5.2408,5.2416,5.242,5.2443,5.257,5.2657,5.2544,5.2546,5.2571,5.2744,5.2796,5.2813,5.301,5.2879,5.2889,5.2897,5.2902,5.3332,5.3336,0,0,0,0,0,0,5.2124,5.2163,5.2453,5.2467,5.2276,5.243,5.2456,5.2525,5.2656,5.2673,5.2574,5.2571,5.2777,5.2799,5.2821,5.3001,5.2891,5.2903,5.291,5.3328,5.3333,5.3337,0,0,0,0,0,0,5.2115,5.215,5.2445,5.2315,5.2353,5.2441,5.2518,5.2531,5.2582,5.2678,5.2694,5.2611,5.2775,5.2804,5.2946,5.3009,5.2908,5.2919,5.3323,5.3329,5.3335,5.3362,0,0,0,0,0,0,5.2104,5.2147,5.2202,5.2316,5.236,5.2566,5.2522,5.2537,5.2603,5.2601,5.2717,5.2733,5.2775,5.2928,5.2958,5.3024,5.2929,5.3318,5.3326,5.3333,5.3356,5.3369,5.338,0,0,0,0,0,5.209,5.2201,5.2205,5.224,5.2432,5.2569,5.2594,5.264,5.2608,5.2665,5.2728,5.2729,5.2998,5.2942,5.2976,5.3047,5.3314,5.3323,5.3333,5.3351,5.3366,5.3379,0,0,0,0,0,0,5.2091,5.2217,5.2222,5.2374,5.2461,5.2572,5.2645,5.2655,5.2752,5.2746,5.2799,5.2826,5.2966,5.3021,5.2957,5.3196,5.3152,5.3169,5.3155,5.317,5.3182,5.3165,5.2939,0,0,0,0,0,5.211,5.2211,5.2315,5.2439,5.2482,5.2556,5.2618,5.2646,5.2738,5.2775,5.2847,5.2937,5.3041,5.3109,5.321,5.3365,5.3391,5.343,5.3442,5.3451,5.3465,5.3551,5.357,5.3368,5.3368,5.3368,0,0,5.2148,5.2229,5.2289,5.2441,5.2512,5.2616,5.2587,5.2698,5.2775,5.2792,5.293,5.2987,5.309,5.3239,5.3309,5.3289,5.3527,5.3463,5.347,5.3478,5.3563,5.3582,5.3599,5.3375,5.3373,5.3372,0,0,5.227,5.2342,5.2453,5.2525,5.2633,5.2682,5.2709,5.2819,5.2857,5.2997,5.3012,5.3106,5.3285,5.3358,5.3419,5.3572,5.3578,5.3604,5.3664,5.3748,5.3764,5.3779,5.3833,5.3852,5.3617,5.3618,5.3618,0,5.2304,5.2461,5.2509,5.262,5.2687,5.2708,5.2821,5.2889,5.3024,5.307,5.3047,5.3273,5.3344,5.3511,5.3548,5.3597,5.363,5.359,5.3758,5.3773,5.3787,5.384,5.386,5.362,5.362,5.3619,5.3619,0,5.2497,5.2606,5.2683,5.2814,5.289,5.3002,5.3067,5.3138,5.3161,5.3212,5.3356,5.3442,5.3562,5.3604,5.3627,5.3775,5.376,5.3747,5.3704,5.3808,5.3859,5.3879,5.3623,5.3623,5.3622,5.3621,0,0,5.2624,5.2782,5.281,5.287,5.2992,5.3077,5.3191,5.3308,5.3368,5.3462,5.3559,5.3711,5.37,5.3769,5.3801,5.3875,5.3991,5.3853,5.3856,5.3875,5.4161,5.4169,5.4191,5.3996,5.4,5.4003,5.4152,0,5.276,5.2962,5.301,5.3183,5.3285,5.3308,5.3407,5.3492,5.3545,5.3639,5.3696,5.3803,5.3781,5.3823,5.3898,5.3961,5.4049,5.3951,5.4086,5.4091,5.4058,5.4218,5.4226,5.4362,5.4172,5.4175,5.4178,0,5.2944,5.3043,5.3226,5.3337,5.3381,5.3469,5.3582,5.3672,5.377,5.3803,5.3881,5.3906,5.4026,5.3978,5.4144,5.4077,5.4135,5.4175,5.4182,5.4195,5.4139,5.4234,5.4406,5.4426,5.4209,5.4207,5.4204,0,5.3018,5.3197,5.333,5.3381,5.3513,5.3575,5.3632,5.3727,5.3796,5.3895,5.394,5.4051,5.4112,5.4198,5.4253,5.4213,5.4415,5.4371,5.4445,5.4444,5.4485,5.4481,5.4667,5.4525,5.4525,5.4524,5.4524,0,5.3163,5.3275,5.3365,5.3447,5.3573,5.3628,5.3751,5.381,5.3894,5.3988,5.4015,5.4103,5.417,5.4267,5.4311,5.4442,5.447,5.4499,5.4509,5.4496,5.4492,5.4534,5.4526,5.453,5.4528,5.4527,5.4526,0,5.3266,5.3331,5.3478,5.3592,5.3623,5.3711,5.3808,5.3889,5.3943,5.4061,5.4093,5.4177,5.4293,5.4356,5.4502,5.4531,5.4678,5.4683,5.4644,5.4648,5.4718,5.471,5.4937,5.4969,5.4806,5.4807,5.4809,0,5.3354,5.344,5.3564,5.3629,5.3688,5.3793,5.3863,5.3922,5.3994,5.4114,5.418,5.4298,5.4395,5.458,5.4654,5.4766,5.4774,5.4846,5.479,5.4775,5.4774,5.4767,5.4776,5.4854,5.4856,5.4857,5.4858,0,5.3503,5.3531,5.3632,5.3745,5.3828,5.3919,5.401,5.4062,5.4135,5.4215,5.4334,5.441,5.4559,5.4676,5.4794,5.4854,5.4869,5.4875,5.4898,5.4885,5.4858,5.4873,5.4669,5.4869,5.4868,5.4867,5.4867,5.4866,5.36,5.3678,5.3778,5.389,5.3964,5.4049,5.4131,5.4196,5.4296,5.4422,5.4451,5.4577,5.4675,5.4836,5.4899,5.4999,5.4985,5.5018,5.5026,5.5033,5.5035,5.4844,5.5021,5.5021,5.502,5.502,5.502,0,5.375,5.3816,5.3918,5.4044,5.4133,5.414,5.4241,5.4314,5.4425,5.4515,5.4611,5.4749,5.4863,5.4947,5.5064,5.5127,5.5137,5.5156,5.5151,5.5165,5.5042,5.501,5.5146,5.5146,5.5146,5.5146,5.5146,5.5146,5.3838,5.3971,5.4012,5.4182,5.4248,5.4372,5.4429,5.4507,5.458,5.4733,5.4828,5.4882,5.4971,5.5095,5.52,5.5222,5.5263,5.5281,5.5304,5.5187,5.5173,5.516,5.513,5.529,5.529,5.5418,5.5419,5.542]},{"header":{"parameterUnit":"m.s-1","parameterCategory":1,"la1":30.2991,"la2":30.254,"lo1":-89.0895,"lo2":-89.0444,"dy":0.0017,"dx":0.0017,"nx":28,"ny":28,"refTime":"2024-06-24T21:00:00:Z","depth":0,"parameterNumber":3,"parameterNumberName":"V-component_of_WINDS"},"data":[0,0,0,0,0,0,0,0,0,0,0,0,0,0,0,0,0,0,0,0,0,0,0,0,0,0,0,0,0,0,0,0,0,0,0,0,0,0,0,0,0,0,0,0,0,0,0,0,0,0,0,0,0,0,0,0,0,0,2.0633,2.0634,0,2.0757,2.0759,2.076,2.0816,2.0816,2.0816,2.0816,2.0943,2.0947,2.095,0,0,0,0,0,0,0,0,0,0,0,0,0,2.0442,2.0445,2.0633,2.0634,2.0636,2.0757,2.0759,2.0761,2.0816,2.0816,2.0816,2.0816,2.0942,2.0946,2.0951,0,0,0,0,0,0,0,0,0,0,0,0,0,2.0541,2.0446,2.0632,2.0678,2.0683,2.0757,2.0759,2.0761,2.0816,2.0816,2.0816,2.0816,2.0941,2.0946,2.0951,2.0988,0,0,2.0967,2.097,0,0,0,0,0,0,0,0,2.0536,2.0548,2.067,2.0675,2.0681,2.0771,2.0739,2.0837,2.0816,2.0766,2.0816,2.0816,2.0886,2.0896,2.092,2.0994,2.1,2.0968,2.0971,2.0973,2.0975,0,0,0,0,0,0,0,2.0529,2.0543,2.0682,2.0672,2.0679,2.0692,2.0706,2.0757,2.0826,2.077,2.0775,2.0789,2.0889,2.0915,2.0923,2.1002,2.0968,2.0973,2.0976,2.0978,2.1112,2.1112,0,0,0,0,0,0,2.0514,2.0537,2.0678,2.0686,2.0606,2.0696,2.0711,2.0742,2.0825,2.0838,2.0789,2.0791,2.0906,2.0917,2.0928,2.0977,2.0973,2.0978,2.0981,2.1112,2.1112,2.1112,0,0,0,0,0,0,2.051,2.0526,2.0673,2.0613,2.0632,2.0699,2.0734,2.0745,2.0771,2.0839,2.0852,2.0802,2.0906,2.0921,2.0973,2.0982,2.0981,2.0986,2.1111,2.1112,2.1112,2.1074,0,0,0,0,0,0,2.0504,2.0525,2.054,2.0613,2.0635,2.0716,2.0734,2.0748,2.0779,2.0783,2.0855,2.0867,2.0907,2.0965,2.0978,2.0989,2.099,2.1111,2.1111,2.1112,2.1075,2.1073,2.1072,0,0,0,0,0,2.0497,2.0524,2.054,2.0557,2.0656,2.0716,2.0729,2.0775,2.078,2.0796,2.0839,2.0865,2.0978,2.0969,2.0985,2.0998,2.111,2.1111,2.1112,2.1076,2.1074,2.1072,0,0,0,0,0,0,2.0451,2.0535,2.0553,2.0605,2.0653,2.0726,2.0747,2.0772,2.082,2.0821,2.0876,2.0891,2.0939,2.0974,2.0962,2.1038,2.1046,2.105,2.1013,2.1012,2.1011,2.1002,2.0994,0,0,0,0,0,2.0447,2.0489,2.056,2.0598,2.0621,2.068,2.0708,2.0739,2.0791,2.0812,2.086,2.0909,2.0956,2.0986,2.1033,2.108,2.1096,2.1096,2.1095,2.1093,2.1096,2.1123,2.1124,2.1115,2.1115,2.1115,0,0,2.0438,2.0489,2.0513,2.059,2.0631,2.0674,2.0697,2.0741,2.0773,2.0819,2.0871,2.0907,2.0966,2.1015,2.104,2.1046,2.1102,2.1094,2.1093,2.1097,2.1124,2.1125,2.1125,2.1116,2.1116,2.1116,0,0,2.0445,2.0488,2.0525,2.0565,2.0626,2.0665,2.0673,2.0742,2.0768,2.0821,2.0856,2.0895,2.0974,2.1015,2.1046,2.1065,2.109,2.1079,2.1072,2.1097,2.1098,2.1099,2.1106,2.1108,2.1082,2.1082,2.1082,0,2.0427,2.0493,2.054,2.0582,2.0615,2.0657,2.0695,2.0731,2.0805,2.0826,2.0832,2.0933,2.0975,2.1034,2.1039,2.1063,2.1074,2.1072,2.1094,2.1095,2.1097,2.1104,2.1107,2.108,2.108,2.108,2.1081,0,2.0468,2.0512,2.0534,2.0604,2.0639,2.0678,2.0731,2.0761,2.0788,2.0825,2.0878,2.093,2.0988,2.1005,2.1032,2.1067,2.1069,2.1084,2.1094,2.1095,2.1103,2.1106,2.1078,2.1078,2.1079,2.1079,0,0,2.045,2.0544,2.0552,2.0584,2.0654,2.0689,2.073,2.0786,2.0811,2.0859,2.0895,2.096,2.0974,2.1009,2.1041,2.1063,2.1074,2.1075,2.1077,2.1073,2.1116,2.1105,2.1108,2.1091,2.1091,2.1092,2.1111,0,2.0467,2.0542,2.0585,2.0642,2.0684,2.0724,2.0759,2.0806,2.0841,2.0881,2.092,2.0966,2.0981,2.1002,2.1025,2.1068,2.1084,2.1067,2.1124,2.1125,2.1109,2.1112,2.1101,2.1117,2.1115,2.1115,2.1116,0,2.0497,2.0544,2.0605,2.067,2.0689,2.072,2.0775,2.0813,2.0866,2.089,2.0928,2.096,2.1003,2.1009,2.1069,2.1057,2.1082,2.1106,2.1108,2.1116,2.1121,2.112,2.1123,2.1125,2.1121,2.112,2.112,0,2.0478,2.0557,2.0604,2.063,2.0706,2.0727,2.076,2.0813,2.0844,2.0891,2.0912,2.0963,2.0992,2.1031,2.1075,2.1075,2.1131,2.114,2.1152,2.1151,2.1163,2.1162,2.117,2.1178,2.1178,2.1178,2.1178,0,2.0492,2.0528,2.0596,2.0625,2.0666,2.0715,2.0754,2.079,2.0836,2.0872,2.091,2.0943,2.0999,2.1038,2.1073,2.1118,2.113,2.1151,2.116,2.1148,2.1145,2.1166,2.1166,2.1179,2.1179,2.1179,2.1178,0,2.0478,2.0526,2.0579,2.0647,2.0665,2.0692,2.075,2.0779,2.0816,2.0861,2.0874,2.0932,2.098,2.1028,2.1093,2.1116,2.1161,2.1172,2.1143,2.1148,2.1157,2.1155,2.118,2.1185,2.1188,2.1188,2.1188,0,2.0485,2.0513,2.0584,2.061,2.0642,2.0685,2.0717,2.0765,2.0796,2.0858,2.0879,2.093,2.0974,2.1049,2.1097,2.1147,2.116,2.1165,2.1168,2.1155,2.116,2.1158,2.1161,2.1164,2.1163,2.1163,2.1163,0,2.0491,2.0513,2.0557,2.0608,2.0645,2.0688,2.0732,2.0752,2.0809,2.0842,2.0892,2.0925,2.0991,2.1041,2.1096,2.113,2.1156,2.1161,2.1167,2.1156,2.1137,2.1147,2.1139,2.1161,2.1161,2.1161,2.1162,2.1162,2.0488,2.0515,2.0568,2.0616,2.0654,2.0694,2.0725,2.0765,2.0808,2.0865,2.0891,2.0941,2.0992,2.1069,2.1101,2.1141,2.1148,2.1155,2.1157,2.1159,2.1156,2.113,2.1151,2.1151,2.1151,2.1151,2.1151,0,2.0496,2.0532,2.0575,2.0636,2.0673,2.0694,2.0744,2.0773,2.0817,2.0863,2.0905,2.0961,2.101,2.106,2.1111,2.1133,2.1146,2.1145,2.1144,2.1151,2.1147,2.1138,2.1133,2.1133,2.1133,2.1133,2.1133,2.1133,2.0505,2.0552,2.0579,2.0645,2.0681,2.073,2.0757,2.0794,2.083,2.0892,2.0933,2.0965,2.1013,2.1067,2.1112,2.1126,2.1143,2.1138,2.1155,2.115,2.1152,2.1153,2.1144,2.1141,2.1141,2.1156,2.1156,2.1156]}]]